Simultaneous Nadir Overpasses (SNOs) Predictions

Prediction of SNOs between TERRA and METOP-C Satellite Orbit:

Table of predicted SNOs for the next 14.0 days since TLE Epoch: 2/27/2021
Index Date (TERRA) Time (TERRA) Lat,Lon (TERRA) SZA (TERRA ) Date (METOP-C) Time (METOP-C) Lat,Lon (METOP-C) SZA (METOP-C ) Distance(km) Time Diff (sec)
1 02/28/2021 09:26:38 81.29, 84.73 91.40 02/28/2021 09:26:31 81.28, 84.55 91.38 2.96 7
2 02/28/2021 10:16:05 -81.28,-107.72 88.63 02/28/2021 10:17:12 -81.29,-107.86 88.61 2.41 67
3 03/03/2021 04:11:26 -81.28, -16.69 89.68 03/03/2021 04:10:14 -81.28, -16.58 89.69 1.92 72
4 03/03/2021 05:00:52 81.28, 151.02 90.33 03/03/2021 05:00:53 81.29, 151.12 90.34 1.72 1
5 03/03/2021 05:49:53 -81.71, -31.10 88.29 03/03/2021 05:51:01 -81.29, -28.34 88.16 64.97 68
6 03/05/2021 23:45:39 -81.27, 49.60 90.76 03/05/2021 23:44:36 -81.27, 49.58 90.79 0.84 63
7 03/06/2021 00:35:04 81.29,-142.34 89.29 03/06/2021 00:35:14 81.29,-142.33 89.29 0.46 10
8 03/08/2021 19:19:52 -81.28, 116.21 91.81 03/08/2021 19:18:58 -81.28, 116.09 91.85 2.06 54
9 03/08/2021 20:09:18 81.28, -76.13 88.19 03/08/2021 20:09:37 81.28, -76.19 88.19 1.13 19
10 03/11/2021 14:54:05 -81.29,-177.21 92.87 03/11/2021 14:53:19 -81.29,-177.03 92.87 3.16 46



Historial Predications of SNOs between TERRA and METOP-C
